Вернуться в каталог

BREEZE-M DEB

АктивенHEO
NORAD 38583·DEBRIS·🇷🇺 Russia

Запущен Mar 14, 2008 с Baikonur Cosmodrome

Loading…

Ближайшие Пролёты (ближайшие 24 часа)

TLE

СвежийSource: Space-Track

Эпоха: Sep 12, 2026, 23:35 UTC

1 38583U 08011AE  26255.98292078  .00001417  00000-0  34986-2 0  9997
2 38583  49.3091 143.6680 6488177  39.2390 353.3049  3.20331592176661

Отслеживайте BREEZE-M DEB в реальном времени с AllMySat

Download on the App Store